Flag for U.S.A. Weather past 2 weeks in Annapolis, Maryland, U.S.A.

Now
36 °F

Clear.


Feels Like: 33 °F
Forecast: 38 / 54 °F
Wind: 3 mph from West

Location: Annapolis - United States Naval Academy

Current Time: Apr 1, 2015 at 5:43:44 AM

Latest Report: Apr 1, 2015 at 4:54 AM


Visibility: 10 mi

Pressure: 29.99 "Hg

Humidity: 73%

Dew point: 28 °F

Location of AnnapolisLocation

Historic Weather in Annapolis — Graph

°F

Annapolis temperature yesterday

Maximum temperature yesterday: 65 °F (at 1:54 PM)
Minimum temperature yesterday: 40 °F (at 6:54 AM)
Average temperature yesterday: 50 °F

Past Weeks' High & Low Weather Summary

 TemperatureHumidityPressure
High66 °F (Mar 17, 12:54 PM)97% (Mar 26, 1:02 PM)30.42 "Hg (Mar 26, 1:02 PM)
Low26 °F (Mar 29, 6:54 AM)21% (Mar 18, 5:54 PM)29.59 "Hg (Mar 31, 3:54 PM)
Average41 °F60%30.07 "Hg
* Reported Mar 17 4:54 AM — Apr 1 4:54 AM, Annapolis, Weather by CustomWeather, © 2015

Note: Actual official high and low records may vary slightly from our data, if they occured in-between our weather recording intervals... More about our weather records

Advertising

Annapolis weather history for previous 24 hours

 ConditionsComfort  
Time TempWeatherWind HumidityBarometerVisibility
4:54 AM
Wed, Apr 1
36 °FClear.3 mph73%29.99 "Hg10 mi
3:54 AM38 °FClear.No wind70%29.98 "Hg10 mi
2:54 AM40 °FClear.7 mph68%29.96 "Hg10 mi
1:54 AM40 °FClear.12 mph68%29.94 "Hg10 mi
12:54 AM41 °FClear.20 mph67%29.91 "Hg10 mi
11:54 PM
Tue, Mar 31
44 °FClear.17 mph65%29.87 "Hg10 mi
10:54 PM45 °FClear.20 mph71%29.84 "Hg10 mi
9:54 PM48 °FClear.10 mph74%29.80 "Hg10 mi
8:54 PM51 °FPassing clouds.16 mph69%29.75 "Hg10 mi
7:54 PM54 °FPartly sunny.16 mph62%29.69 "Hg10 mi
6:54 PM56 °FLight rain. Mostly cloudy.12 mph67%29.60 "Hg10 mi
5:54 PM58 °FLight rain. Overcast.3 mph54%29.64 "Hg8 mi
4:54 PM62 °FLight rain. Mostly cloudy.10 mph35%29.60 "Hg10 mi
3:54 PM48 °FOvercast.12 mph71%29.59 "Hg10 mi
2:54 PM60 °FPassing clouds.15 mph36%29.62 "Hg10 mi
1:54 PM65 °FSunny.17 mph26%29.66 "Hg10 mi
12:54 PM63 °FSunny.14 mph27%29.75 "Hg10 mi
11:54 AM57 °FSunny.13 mph41%29.80 "Hg10 mi
10:54 AM48 °FSunny.13 mph61%29.86 "Hg10 mi
9:54 AM51 °FPartly sunny.7 mph46%29.91 "Hg10 mi
8:54 AM49 °FSunny.6 mph46%29.93 "Hg10 mi
7:54 AM42 °FPartly sunny.No wind71%29.94 "Hg10 mi
6:54 AM40 °FPassing clouds.No wind68%29.93 "Hg10 mi
5:54 AM41 °FClear.3 mph60%29.92 "Hg10 mi
Weather by CustomWeather, © 2015

See weather overviewHow to use our weather pages